CW1923 Weather Reports


Display with metric or nautical units.
time (UTC)temp
F
wind
direction
speed
MPH
gust
MPH
rain 1hr
in
rain 24hr
in
rain mn
in
humidity
%
barometer
mb
20210621123930 63 139 0.0 5.0 0.00 0.78 0.78 91 1009.8
20210621123434 63 139 0.0 4.0 0.00 0.78 0.78 91 1009.9
20210621122930 63 139 0.0 4.0 0.00 0.78 0.78 91 1009.8
20210621122433 63 139 0.0 2.0 0.00 0.78 0.78 91 1009.7
20210621121934 63 139 0.0 2.0 0.00 0.78 0.78 91 1009.6
20210621121431 63 139 0.0 2.0 0.00 0.78 0.78 91 1009.7
20210621120932 63 137 0.0 4.0 0.00 0.78 0.78 91 1009.7
20210621120437 63 137 0.0 4.0 0.00 0.78 0.78 92 1009.6
20210621115933 63 128 0.0 4.0 0.00 0.78 0.78 93 1009.6
20210621115431 62 127 0.0 4.0 0.00 0.78 0.78 93 1009.5
20210621114930 62 127 0.0 4.0 0.00 0.78 0.78 93 1009.5
20210621114432 62 115 0.0 2.0 0.00 0.78 0.78 93 1009.5
20210621113931 62 115 0.0 2.0 0.00 0.78 0.78 93 1009.5
20210621113432 62 115 0.0 2.0 0.00 0.78 0.78 93 1009.5
20210621112931 62 115 0.0 4.0 0.00 0.78 0.78 94 1009.4
20210621112433 62 115 0.0 4.0 0.00 0.78 0.78 94 1009.3
20210621111924 62 112 0.0 4.0 0.00 0.78 0.78 94 1009.3
20210621111426 62 353 0.0 0.0 0.00 0.78 0.78 94 1009.3
20210621110924 62 353 0.0 0.0 0.00 0.78 0.78 94 1009.2
20210621110426 62 353 0.0 5.0 0.00 0.78 0.78 94 1009.1
20210621105921 62 353 0.0 5.0 0.00 0.78 0.78 94 1009.2
20210621105421 62 328 0.0 0.0 0.00 0.78 0.78 94 1009.1
20210621104920 62 328 0.0 2.0 0.00 0.78 0.78 94 1008.9
20210621104419 62 328 0.0 2.0 0.00 0.78 0.78 94 1008.9
20210621103910 62 62 0.0 0.0 0.00 0.78 0.78 95 1008.9
20210621103404 62 62 0.0 0.0 0.00 0.78 0.78 95 1008.8
20210621102904 61 312 0.0 0.0 0.00 0.78 0.78 95 1008.7
20210621102411 61 312 0.0 0.0 0.00 0.78 0.78 95 1008.6
20210621101905 61 312 0.0 4.0 0.00 0.78 0.78 95 1008.6
20210621101402 61 312 2.0 4.0 0.00 0.78 0.78 95 1008.6
20210621100902 61 314 2.0 5.0 0.00 0.78 0.78 95 1008.5
20210621100403 61 313 2.0 5.0 0.01 0.78 0.78 95 1008.5
20210621095902 61 282 0.0 4.0 0.01 0.78 0.78 96 1008.5
20210621095353 61 282 0.0 5.0 0.01 0.78 0.78 96 1008.3
20210621094847 61 214 0.0 5.0 0.01 0.78 0.78 97 1008.1
20210621094342 61 3 2.0 5.0 0.01 0.78 0.78 97 1008.1
20210621093838 61 6 2.0 7.0 0.01 0.78 0.78 97 1008.1
20210621093334 61 10 2.0 7.0 0.01 0.78 0.78 97 1008.2
20210621092834 61 4 2.0 5.0 0.01 0.78 0.78 97 1008.1
20210621092334 61 358 2.0 5.0 0.01 0.78 0.78 97 1008.0
20210621091831 61 10 2.0 5.0 0.01 0.78 0.78 98 1008.0
20210621091331 61 25 2.0 9.0 0.01 0.78 0.78 98 1007.8
20210621090832 61 191 2.0 9.0 0.01 0.77 0.78 99 1007.6
20210621090332 60 1 2.0 7.0 0.01 0.77 0.77 98 1007.5
20210621085830 60 1 4.0 7.0 0.01 0.77 0.77 98 1007.5
20210621085330 60 2 2.0 5.0 0.01 0.78 0.77 98 1007.3
20210621084832 60 20 2.0 5.0 0.02 0.78 0.77 99 1007.4
20210621084334 60 21 2.0 5.0 0.02 0.78 0.77 99 1007.2
20210621083834 60 25 0.0 5.0 0.02 0.78 0.77 99 1007.1
20210621083331 59 25 0.0 4.0 0.02 0.78 0.77 99 1007.4
20210621082832 59 25 0.0 4.0 0.03 0.78 0.77 98 1007.6
20210621082332 59 25 0.0 4.0 0.04 0.78 0.77 98 1007.6
20210621081833 59 25 0.0 5.0 0.05 0.78 0.77 98 1007.5
20210621081327 59 54 2.0 12.0 0.06 0.78 0.77 98 1007.4
20210621080830 59 296 4.0 12.0 0.06 0.78 0.77 98 1007.3
20210621080325 59 288 2.0 9.0 0.06 0.77 0.76 98 1006.8
20210621075828 59 351 2.0 9.0 0.07 0.77 0.76 98 1006.2
20210621075329 59 17 2.0 9.0 0.08 0.76 0.76 98 1006.2
20210621074828 59 356 2.0 4.0 0.09 0.76 0.76 98 1006.2
20210621074325 59 356 2.0 5.0 0.09 0.76 0.76 98 1006.2
20210621073826 59 6 2.0 5.0 0.09 0.76 0.75 98 1006.4
20210621073326 59 5 0.0 9.0 0.09 0.76 0.75 98 1006.8
20210621072826 59 155 0.0 9.0 0.09 0.75 0.74 98 1006.7
20210621072326 59 311 2.0 5.0 0.08 0.74 0.73 98 1006.7
20210621071826 59 343 0.0 5.0 0.07 0.73 0.72 98 1006.8
20210621071325 59 289 0.0 4.0 0.06 0.72 0.72 98 1007.0
20210621070826 59 285 0.0 4.0 0.06 0.72 0.72 98 1007.0
20210621070324 59 284 0.0 2.0 0.06 0.71 0.71 98 1007.1
20210621065828 59 284 0.0 2.0 0.05 0.70 0.69 98 1007.2
20210621065306 59 284 0.0 0.0 0.04 0.69 0.68 98 1007.2
20210621064803 59 284 0.0 2.0 0.03 0.67 0.67 98 1007.2
20210621064305 59 284 0.0 2.0 0.02 0.67 0.66 98 1007.0
20210621063802 59 284 0.0 5.0 0.03 0.67 0.66 98 1007.0
20210621063306 59 284 0.0 5.0 0.02 0.66 0.65 98 1007.0
20210621062803 59 10 0.0 0.0 0.02 0.66 0.65 98 1006.9
20210621062306 59 10 0.0 0.0 0.02 0.66 0.65 98 1006.7
20210621061803 59 10 0.0 0.0 0.02 0.66 0.65 98 1006.6
20210621061305 59 10 0.0 0.0 0.02 0.66 0.65 98 1006.4
20210621060805 59 10 0.0 0.0 0.02 0.66 0.65 98 1006.3
20210621060303 59 10 0.0 0.0 0.02 0.65 0.65 98 1006.3
20210621055803 59 10 0.0 2.0 0.02 0.65 0.65 98 1006.3
20210621055306 59 6 0.0 2.0 0.02 0.65 0.64 98 1006.2
20210621054802 59 6 0.0 0.0 0.02 0.65 0.64 98 1006.1
20210621054306 59 6 0.0 0.0 0.02 0.65 0.64 98 1006.1
20210621053804 59 9 0.0 0.0 0.02 0.64 0.63 98 1006.0
20210621053303 59 9 0.0 0.0 0.03 0.64 0.63 98 1006.0
20210621052803 59 9 0.0 4.0 0.03 0.64 0.63 98 1005.9
20210621052305 59 8 0.0 4.0 0.05 0.64 0.63 98 1005.7
20210621051807 60 9 2.0 7.0 0.06 0.64 0.63 98 1005.8
20210621051306 60 9 2.0 7.0 0.06 0.64 0.63 98 1005.7
20210621050804 60 4 0.0 5.0 0.08 0.64 0.63 98 1005.7
20210621050305 60 341 0.0 4.0 0.09 0.64 0.63 98 1005.6
20210621045804 60 334 2.0 5.0 0.09 0.63 0.62 98 1005.6
20210621045305 60 359 0.0 5.0 0.11 0.63 0.62 98 1005.5
20210621044805 60 345 0.0 4.0 0.13 0.62 0.62 98 1005.4
20210621044304 60 12 2.0 4.0 0.13 0.62 0.61 98 1005.5
20210621043803 60 12 2.0 5.0 0.13 0.61 0.61 98 1005.3
20210621043301 60 12 2.0 5.0 0.13 0.61 0.60 98 1005.3
20210621042805 61 6 0.0 4.0 0.14 0.60 0.60 98 1005.3
20210621042306 61 6 2.0 4.0 0.13 0.59 0.58 98 1005.2
20210621041803 61 357 2.0 4.0 0.13 0.58 0.57 98 1005.1
20210621041303 61 357 2.0 4.0 0.13 0.57 0.57 97 1005.1
20210621040805 61 358 2.0 5.0 0.13 0.56 0.55 98 1005.0
20210621040303 61 359 2.0 5.0 0.12 0.54 0.54 98 1005.0
20210621035803 61 351 2.0 5.0 0.11 0.53 0.53 97 1005.1
20210621035305 62 310 2.0 5.0 0.10 0.51 0.51 97 1005.0
20210621034804 62 25 2.0 5.0 0.09 0.50 0.50 97 1004.9
20210621034303 62 35 2.0 5.0 0.09 0.49 0.49 97 1005.0
20210621033804 62 2 0.0 4.0 0.09 0.48 0.48 97 1005.0
20210621033305 62 357 0.0 4.0 0.09 0.47 0.46 97 1004.9
20210621032805 62 357 2.0 4.0 0.08 0.46 0.46 97 1004.8
20210621032305 62 359 2.0 7.0 0.08 0.45 0.45 97 1004.8
20210621031803 62 358 0.0 7.0 0.07 0.45 0.44 97 1004.8
20210621031303 63 122 0.0 5.0 0.07 0.44 0.43 97 1004.8
20210621030802 63 123 2.0 5.0 0.06 0.43 0.43 97 1004.9
20210621030304 63 25 2.0 5.0 0.07 0.43 0.43 97 1004.9
20210621025802 63 10 2.0 4.0 0.06 0.43 0.42 97 1004.8
20210621025306 63 10 2.0 4.0 0.07 0.42 0.41 97 1004.8
20210621024758 63 10 2.0 5.0 0.07 0.41 0.40 97 1004.7
20210621024258 63 10 0.0 5.0 0.07 0.40 0.39 97 1004.9
20210621023757 63 44 0.0 2.0 0.07 0.39 0.39 97 1004.9
20210621023257 63 72 0.0 2.0 0.08 0.39 0.38 97 1004.9
20210621022739 63 83 0.0 0.0 0.09 0.38 0.37 97 1005.0
20210621022235 63 83 0.0 0.0 0.09 0.38 0.37 97 1005.0
20210621021733 63 83 0.0 0.0 0.09 0.38 0.37 97 1005.0
20210621021226 63 83 0.0 0.0 0.10 0.37 0.36 97 1005.1
20210621020726 64 14 0.0 0.0 0.11 0.37 0.36 97 1005.0
20210621020228 64 14 0.0 0.0 0.11 0.36 0.35 97 1004.9
20210621015722 64 14 0.0 0.0 0.11 0.35 0.35 97 1004.9
20210621015205 64 65 0.0 0.0 0.12 0.34 0.34 97 1004.9
20210621014703 64 66 0.0 0.0 0.13 0.34 0.33 97 1005.0
20210621014208 64 20 0.0 0.0 0.13 0.33 0.32 96 1005.0
20210621013703 64 20 0.0 0.0 0.11 0.31 0.31 96 1005.1
20210621013202 64 20 0.0 0.0 0.11 0.30 0.30 96 1005.1
20210621012706 64 20 0.0 0.0 0.11 0.29 0.28 96 1005.1
20210621012203 64 19 0.0 0.0 0.13 0.28 0.28 96 1005.0
20210621011704 64 25 0.0 0.0 0.13 0.28 0.27 96 1005.2
20210621011201 64 0 0.0 4.0 0.13 0.27 0.26 96 1005.2
20210621010700 64 0 0.0 4.0 0.14 0.26 0.25 96 1005.2
20210621010149 65 357 0.0 4.0 0.15 0.24 0.24 96 1005.2
20210621005643 65 18 0.0 4.0 0.16 0.24 0.24 96 1005.1
20210621005141 65 16 0.0 2.0 0.16 0.23 0.22 96 1005.2
20210621004638 65 16 0.0 4.0 0.15 0.21 0.20 96 1005.1
20210621004146 65 17 0.0 4.0 0.15 0.20 0.20 95 1005.2
20210621003638 65 16 0.0 4.0 0.15 0.20 0.20 95 1005.2
20210621003141 65 16 0.0 4.0 0.15 0.20 0.19 95 1005.3
20210621002636 65 16 0.0 4.0 0.13 0.18 0.17 95 1005.3
20210621002136 65 17 0.0 2.0 0.11 0.16 0.15 95 1005.3
20210621001635 65 17 0.0 2.0 0.09 0.14 0.13 95 1005.4
20210621001135 65 17 0.0 2.0 0.09 0.13 0.12 94 1005.3
20210621000627 65 17 0.0 2.0 0.09 0.12 0.11 94 1005.2
20210621000128 65 17 0.0 2.0 0.08 0.09 0.09 94 1005.2
20210620235625 65 17 0.0 2.0 0.06 0.09 0.08 94 1005.3
20210620235125 66 17 0.0 2.0 0.06 0.06 0.06 94 1005.4
20210620234624 66 17 0.0 2.0 0.05 0.06 0.06 93 1005.2
20210620234126 66 17 0.0 2.0 0.04 0.06 0.05 93 1005.2
20210620233624 66 17 0.0 0.0 0.04 0.05 0.05 93 1005.2
20210620233130 66 17 0.0 2.0 0.03 0.05 0.04 93 1005.2
20210620232628 66 17 0.0 2.0 0.03 0.05 0.04 92 1005.2
20210620232125 66 17 0.0 2.0 0.03 0.05 0.04 92 1005.2
20210620231621 66 17 0.0 2.0 0.03 0.04 0.03 92 1005.2
20210620231121 66 17 0.0 2.0 0.03 0.04 0.03 92 1005.3
20210620230621 66 17 0.0 2.0 0.02 0.03 0.02 91 1005.4
20210620230122 66 17 0.0 2.0 0.02 0.02 0.02 91 1005.3
20210620225622 66 17 0.0 2.0 0.02 0.02 0.02 90 1005.4
20210620225120 66 17 0.0 2.0 0.01 0.02 0.01 90 1005.5
20210620224623 66 17 0.0 2.0 0.01 0.02 0.01 89 1005.6
20210620224123 66 17 0.0 2.0 0.01 0.02 0.01 89 1005.5
20210620223623 67 17 0.0 2.0 0.01 0.02 0.01 89 1005.6
20210620223120 67 17 0.0 2.0 0.01 0.02 0.01 88 1005.5
20210620222620 67 12 0.0 2.0 0.01 0.02 0.01 88 1005.5
20210620222123 67 12 0.0 2.0 0.01 0.02 0.01 87 1005.6
20210620221623 67 12 0.0 4.0 0.00 0.02 0.00 87 1005.7
20210620221118 67 12 0.0 4.0 0.00 0.02 0.00 87 1005.7
20210620220618 67 12 0.0 4.0 0.00 0.02 0.00 87 1005.7
20210620220118 67 12 0.0 2.0 0.00 0.02 0.00 86 1005.8
20210620215616 67 12 0.0 2.0 0.00 0.02 0.02 86 1005.9
20210620215114 67 12 0.0 2.0 0.00 0.02 0.02 85 1006.0
20210620214615 67 12 0.0 2.0 0.00 0.03 0.02 85 1006.0
20210620214117 67 12 0.0 4.0 0.00 0.04 0.02 85 1006.1
20210620213604 67 12 2.0 4.0 0.00 0.06 0.02 85 1006.0
20210620213105 67 12 2.0 4.0 0.00 0.06 0.02 84 1006.0
20210620212602 67 14 0.0 2.0 0.00 0.07 0.02 85 1006.1
20210620212104 67 14 0.0 0.0 0.00 0.07 0.02 85 1006.2
20210620211605 67 357 0.0 0.0 0.00 0.07 0.02 84 1006.1
20210620211103 68 357 0.0 4.0 0.00 0.08 0.02 84 1006.2
20210620210603 68 357 0.0 4.0 0.00 0.08 0.02 84 1006.2
20210620210051 68 358 0.0 4.0 0.00 0.09 0.02 84 1006.1
20210620205541 68 358 0.0 5.0 0.00 0.12 0.02 84 1006.1
20210620205033 69 356 0.0 5.0 0.00 0.12 0.02 83 1006.1
20210620204531 69 16 2.0 4.0 0.00 0.13 0.02 83 1006.1
20210620204030 69 17 2.0 4.0 0.00 0.13 0.02 82 1006.2
20210620203533 70 18 2.0 5.0 0.00 0.13 0.02 81 1006.3
20210620203031 70 20 2.0 5.0 0.00 0.13 0.02 80 1006.3
20210620202533 70 5 2.0 5.0 0.00 0.13 0.02 80 1006.3
20210620202031 70 3 2.0 5.0 0.00 0.13 0.02 79 1006.3
20210620201530 70 4 2.0 5.0 0.00 0.13 0.02 79 1006.3
20210620201032 70 4 2.0 5.0 0.00 0.13 0.02 79 1006.4
20210620200530 70 2 2.0 5.0 0.00 0.13 0.02 79 1006.4
20210620200030 71 58 0.0 4.0 0.00 0.13 0.02 79 1006.6
20210620195530 71 10 0.0 0.0 0.00 0.13 0.02 79 1006.5
20210620195017 71 7 2.0 9.0 0.00 0.13 0.02 78 1006.5
20210620194511 71 7 2.0 9.0 0.00 0.13 0.02 78 1006.3
20210620194003 71 5 2.0 7.0 0.00 0.13 0.02 78 1006.4
20210620193505 71 355 4.0 7.0 0.00 0.13 0.02 77 1006.3
20210620193005 71 110 2.0 7.0 0.00 0.13 0.02 77 1006.2
20210620192501 72 10 2.0 7.0 0.00 0.13 0.02 77 1006.3
20210620192000 72 48 2.0 5.0 0.00 0.13 0.02 77 1006.3
20210620191459 72 49 2.0 5.0 0.00 0.13 0.02 75 1006.2
20210620190959 72 25 2.0 5.0 0.00 0.13 0.02 75 1006.2
20210620190500 73 100 2.0 5.0 0.00 0.13 0.02 75 1006.1
20210620185955 73 3 2.0 5.0 0.00 0.13 0.02 73 1006.0
20210620185456 73 25 2.0 5.0 0.00 0.13 0.02 73 1005.9
20210620184956 74 12 2.0 7.0 0.00 0.13 0.02 72 1005.9
20210620184458 74 2 2.0 7.0 0.00 0.13 0.02 71 1006.1
20210620183953 74 25 2.0 5.0 0.00 0.13 0.02 70 1006.1
20210620183446 75 354 2.0 5.0 0.00 0.13 0.02 68 1006.2
20210620182945 75 334 0.0 5.0 0.00 0.13 0.02 67 1006.3
20210620182440 75 164 0.0 0.0 0.00 0.13 0.02 62 1006.1
20210620181942 75 170 0.0 2.0 0.00 0.13 0.02 62 1006.2
20210620181436 76 170 0.0 4.0 0.00 0.13 0.02 62 1006.2
20210620180933 76 170 0.0 4.0 0.00 0.13 0.02 62 1006.1
20210620180433 76 170 0.0 0.0 0.00 0.13 0.02 62 1006.3
20210620175931 76 170 0.0 0.0 0.00 0.13 0.02 62 1006.4
20210620175434 76 180 0.0 0.0 0.00 0.13 0.02 62 1006.3
20210620174931 76 180 0.0 0.0 0.00 0.13 0.02 61 1006.5
20210620174431 76 180 0.0 0.0 0.00 0.13 0.02 61 1006.6
20210620173932 77 180 0.0 0.0 0.00 0.13 0.02 60 1006.6
20210620173432 77 180 0.0 0.0 0.00 0.13 0.02 60 1006.6
20210620172932 77 180 0.0 0.0 0.00 0.13 0.02 60 1006.6
20210620172431 77 180 0.0 0.0 0.00 0.13 0.02 59 1006.7
20210620171935 77 180 0.0 0.0 0.00 0.13 0.02 58 1006.8
20210620171423 78 180 0.0 0.0 0.00 0.13 0.02 57 1006.8
20210620170925 78 180 0.0 2.0 0.00 0.13 0.02 57 1006.8
20210620170424 78 180 0.0 5.0 0.00 0.13 0.02 58 1006.8
20210620165923 78 180 0.0 5.0 0.00 0.13 0.02 56 1007.0
20210620165423 78 185 0.0 5.0 0.00 0.13 0.02 56 1006.9
20210620164923 78 185 2.0 5.0 0.00 0.13 0.02 56 1007.1
20210620164418 78 189 2.0 4.0 0.00 0.13 0.02 55 1007.1
20210620163918 78 189 2.0 7.0 0.00 0.13 0.02 57 1007.1
20210620163417 78 189 2.0 7.0 0.00 0.13 0.02 57 1007.3
20210620162911 77 187 2.0 5.0 0.00 0.13 0.02 58 1007.2
20210620162406 77 99 2.0 7.0 0.00 0.13 0.02 60 1007.1
20210620161903 77 149 2.0 7.0 0.00 0.13 0.02 59 1007.1
20210620161404 77 156 2.0 5.0 0.00 0.13 0.02 59 1007.2
20210620160905 77 158 0.0 4.0 0.00 0.13 0.02 57 1007.2
20210620160405 77 160 2.0 4.0 0.00 0.13 0.02 58 1007.1
20210620155904 77 160 2.0 5.0 0.00 0.13 0.02 56 1007.2
20210620155402 78 141 2.0 5.0 0.00 0.13 0.02 55 1007.1
20210620154904 79 299 2.0 5.0 0.00 0.13 0.02 54 1007.0
20210620154403 79 113 2.0 5.0 0.00 0.13 0.02 54 1007.0
20210620153903 79 74 2.0 4.0 0.00 0.13 0.02 56 1006.7
20210620153404 79 54 2.0 5.0 0.00 0.13 0.02 54 1006.8
20210620152903 79 54 2.0 5.0 0.00 0.13 0.02 55 1006.6
20210620152405 79 273 2.0 5.0 0.00 0.13 0.02 55 1006.6
20210620151906 79 242 2.0 7.0 0.00 0.13 0.02 54 1006.7
20210620151404 79 251 2.0 7.0 0.00 0.13 0.02 53 1006.7
20210620150904 80 49 2.0 7.0 0.00 0.13 0.02 53 1006.7
20210620150403 80 241 4.0 9.0 0.00 0.13 0.02 53 1006.7
20210620145902 80 25 2.0 9.0 0.00 0.13 0.02 54 1006.5
20210620145404 80 3 2.0 7.0 0.00 0.13 0.02 56 1006.7
20210620144904 79 3 2.0 7.0 0.00 0.13 0.02 53 1006.8
20210620144401 80 10 2.0 7.0 0.00 0.13 0.02 56 1006.7
20210620143903 79 305 2.0 7.0 0.00 0.13 0.02 55 1007.0
20210620143358 79 287 2.0 7.0 0.00 0.13 0.02 57 1007.1
20210620142858 78 216 4.0 11.0 0.00 0.13 0.02 58 1007.3
20210620142359 78 15 4.0 11.0 0.00 0.13 0.02 57 1007.4
20210620141856 79 305 2.0 7.0 0.00 0.13 0.02 55 1007.3
20210620141358 79 5 2.0 9.0 0.00 0.13 0.02 59 1007.5
20210620140856 78 25 4.0 11.0 0.00 0.13 0.02 57 1007.7
20210620140347 78 41 5.0 12.0 0.00 0.13 0.02 58 1007.8
20210620135846 78 297 4.0 14.0 0.00 0.13 0.02 57 1007.7
20210620135346 78 323 2.0 14.0 0.00 0.13 0.02 58 1007.6
20210620134845 77 337 2.0 11.0 0.00 0.13 0.02 58 1007.6
20210620134339 77 281 2.0 11.0 0.00 0.13 0.02 58 1007.5
20210620133836 76 308 4.0 14.0 0.00 0.13 0.02 59 1007.7
20210620133334 77 304 4.0 14.0 0.00 0.13 0.02 57 1007.7
20210620132835 77 218 2.0 9.0 0.00 0.13 0.02 57 1007.9
20210620132336 77 168 4.0 11.0 0.00 0.13 0.02 58 1007.8
20210620131830 77 137 4.0 11.0 0.00 0.13 0.02 58 1007.9
20210620131336 77 285 4.0 14.0 0.00 0.13 0.02 59 1007.9
20210620130827 77 291 4.0 14.0 0.00 0.13 0.02 58 1007.8
20210620130337 77 18 4.0 11.0 0.00 0.13 0.02 58 1007.8
20210620125833 77 170 4.0 11.0 0.00 0.13 0.02 60 1007.8
20210620125331 76 157 4.0 11.0 0.00 0.13 0.02 60 1007.8
20210620124830 75 304 4.0 5.0 0.00 0.13 0.02 60 1007.8